Home > Weather > Tønsberg > Past weeks

Flag for Norway Past Weather in Tønsberg, Norway — Yesterday and Last 2 Weeks

Now
52 °F

Passing clouds.


Feels Like: 47 °F
Forecast: 54 / 69 °F
Wind: 13 mph from Southwest

Location: Oseberg

Current Time: Jun 27, 2016 at 4:24:15 AM

Latest Report: Jun 27, 2016 at 3:50 AM


Visibility: N/A

Pressure: 29.65 "Hg

Humidity: 88%

Dew Point: 48 °F

Location of TønsbergLocation

Past Weather in Tønsberg — Graph

°F

Tønsberg Temperature Yesterday

Maximum temperature yesterday: 54 °F (at 2:20 PM)
Minimum temperature yesterday: 50 °F (at 4:20 AM)
Average temperature yesterday: 52 °F

High & Low Weather Summary for the Past Weeks

 TemperatureHumidityPressure
High61 °F (Jun 14, 3:20 PM)100% (Jun 17, 4:50 AM)30.09 "Hg (Jun 17, 4:50 AM)
Low48 °F (Jun 18, 1:20 AM)39% (Jun 13, 7:20 AM)29.47 "Hg (Jun 20, 1:20 PM)
Average53 °F87%29.83 "Hg
* Reported Jun 12 2:50 AM — Jun 27 2:50 AM, Tønsberg, Weather by CustomWeather, © 2016

Note: Actual official high and low records may vary slightly from our data, if they occured in-between our weather recording intervals... More about our weather records

Advertising

Tønsberg Weather History for the Previous 24 Hours

Scroll right to see more
 ConditionsComfort  
Time TempWeatherWind HumidityBarometerVisibility
2:50 AM
Mon, Jun 27
52 °FPassing clouds.14 mph88%29.65 "HgN/A
1:50 AM52 °FPartly cloudy.15 mph94%29.68 "HgN/A
12:50 AM52 °FSprinkles. Partly cloudy.14 mph94%29.68 "Hg6 mi
11:50 PM
Sun, Jun 26
52 °FSprinkles. Low clouds.15 mph94%29.65 "Hg4 mi
10:50 PM52 °FSprinkles. Low clouds.15 mph94%29.68 "Hg4 mi
9:50 PM52 °FLow clouds.17 mph94%29.65 "Hg5 mi
8:50 PM50 °FLow clouds.21 mph100%29.65 "Hg4 mi
7:50 PM52 °FLow clouds.16 mph94%29.65 "Hg4 mi
7:20 PM52 °FLow clouds.18 mph94%29.65 "Hg4 mi
6:50 PM52 °FLow clouds.18 mph94%29.68 "Hg4 mi
6:20 PM52 °FLow clouds.21 mph94%29.68 "Hg4 mi
5:50 PM52 °FLow clouds.20 mph94%29.68 "Hg4 mi
5:20 PM54 °FLow clouds.17 mph88%29.68 "Hg3 mi
4:50 PM52 °FLow clouds.21 mph94%29.68 "Hg2 mi
4:20 PM54 °FLow clouds.20 mph94%29.71 "Hg2 mi
3:50 PM52 °FFog.21 mph100%29.71 "Hg3 mi
3:20 PM54 °FLow clouds.20 mph94%29.71 "Hg3 mi
2:50 PM54 °FLight rain. Fog.20 mph94%29.74 "Hg3 mi
2:20 PM54 °FFog.21 mph94%29.74 "Hg2 mi
1:50 PM52 °FLight rain. Low clouds.25 mph100%29.74 "Hg2 mi
12:50 PM52 °FFog.26 mph100%29.74 "Hg1 mi
12:20 PM52 °FFog.25 mph100%29.77 "Hg0 mi
11:50 AM52 °FFog.25 mph100%29.80 "Hg1 mi
11:20 AM52 °FFog.23 mph100%29.80 "Hg1 mi
10:50 AM52 °FFog.24 mph100%29.80 "Hg0 mi
10:20 AM52 °FFog.24 mph100%29.83 "Hg0 mi
9:50 AM52 °FFog.23 mph100%29.83 "Hg0 mi
9:20 AM52 °FFog.23 mph100%29.83 "Hg0 mi
8:50 AM52 °FFog.24 mph100%29.83 "Hg0 mi
8:20 AM50 °FFog.22 mph100%29.86 "Hg0 mi
7:20 AM50 °FFog.21 mph100%29.86 "Hg0 mi
6:50 AM50 °FFog.21 mph100%29.86 "Hg0 mi
5:50 AM52 °FFog.17 mph94%29.92 "Hg0 mi
5:20 AM50 °FFog.18 mph100%29.92 "Hg1 mi
4:50 AM50 °FDrizzle. Fog.20 mph100%29.92 "Hg1 mi
4:20 AM50 °FDrizzle. Fog.17 mph100%29.95 "Hg1 mi
Weather by CustomWeather, © 2016

See weather overviewHow to use our weather pages